Location: Ertinghausen
(51.6624°N, 9.7874°E)
Time: 20:05:05
(UTC+00:00)

CZ-2C R/B - Pass Details

Date: 15 August 2024
Orbit: 703 x 904 km, 98.2° (Epoch: 07 September)

Event Time Altitude Azimuth Distance (km) Brightness Sun altitude
Rises 00:46:03 0° 20° (NNE) 3,210 7.8 -22.1°
Reaches altitude 10° 00:48:27 10° 28° (NNE) 2,308 6.6 -22.0°
Maximum altitude 00:53:13 40° 97° (E) 1,165 4.0 -21.7°
Enters shadow 00:55:32 26° 147° (SSE) 1,531 4.2 -21.5°
